Time,TemperatureF,DewpointF,PressureIn,WindDirection,WindDirectionDegrees,WindSpeedMPH,WindSpeedGustMPH,Humidity,HourlyPrecipIn,Conditions,Clouds,dailyrainin,SolarRadiationWatts/m^2,SoftwareType,DateUTC
2013-03-06 00:00:00,49.9,46.5,29.76,NNW,338,3.0,10.0,88,0.08,,,0.00,0,WeatherCatV1.12B45,2013-03-06 08:00:00,
2013-03-06 00:05:00,49.9,46.5,29.75,North,0,3.0,16.0,88,0.08,,,0.00,0,WeatherCatV1.12B45,2013-03-06 08:05:00,
2013-03-06 00:10:00,49.9,46.5,29.75,NNW,338,4.0,10.0,88,0.08,,,0.00,0,WeatherCatV1.12B45,2013-03-06 08:10:00,
2013-03-06 00:15:00,49.9,46.5,29.75,SSW,202,3.0,8.0,88,0.06,,,0.00,0,WeatherCatV1.12B45,2013-03-06 08:15:00,
2013-03-06 00:20:00,49.9,46.5,29.75,NNW,338,2.0,11.0,88,0.07,,,0.00,0,WeatherCatV1.12B45,2013-03-06 08:20:00,
2013-03-06 00:25:00,49.9,46.8,29.75,North,0,3.0,11.0,89,0.07,,,0.00,0,WeatherCatV1.12B45,2013-03-06 08:25:00,
2013-03-06 00:30:00,49.8,46.7,29.75,NNW,338,2.0,11.0,89,0.05,,,0.00,0,WeatherCatV1.12B45,2013-03-06 08:30:00,
2013-03-06 00:35:00,49.8,46.7,29.76,SW,225,4.0,17.0,89,0.74,,,0.00,0,WeatherCatV1.12B45,2013-03-06 08:35:00,
2013-03-06 00:40:00,49.8,46.7,29.76,NNW,338,4.0,13.0,89,0.74,,,0.00,0,WeatherCatV1.12B45,2013-03-06 08:40:00,
2013-03-06 00:45:00,49.8,46.7,29.76,North,0,3.0,8.0,89,0.26,,,0.00,0,WeatherCatV1.12B45,2013-03-06 08:45:00,
2013-03-06 00:50:00,49.8,46.7,29.76,North,0,2.0,8.0,89,0.17,,,0.00,0,WeatherCatV1.12B45,2013-03-06 08:50:00,
2013-03-06 00:55:00,49.9,47.1,29.76,NW,315,3.0,11.0,90,0.67,,,0.00,0,WeatherCatV1.12B45,2013-03-06 08:55:00,
2013-03-06 01:00:00,49.9,47.1,29.76,NNW,338,1.0,6.0,90,0.82,,,0.00,0,WeatherCatV1.12B45,2013-03-06 09:00:00,
2013-03-06 01:05:00,49.9,47.1,29.76,NW,315,4.0,16.0,90,0.14,,,0.00,0,WeatherCatV1.12B45,2013-03-06 09:05:00,
2013-03-06 01:10:00,49.9,47.1,29.76,NW,315,3.0,10.0,90,0.14,,,0.00,0,WeatherCatV1.12B45,2013-03-06 09:10:00,
2013-03-06 01:15:00,50.1,47.3,29.76,NW,315,2.0,11.0,90,0.04,,,0.00,0,WeatherCatV1.12B45,2013-03-06 09:15:00,
2013-03-06 01:20:00,50.1,47.3,29.76,NW,315,3.0,8.0,90,0.00,,,0.00,0,WeatherCatV1.12B45,2013-03-06 09:20:00,
2013-03-06 01:25:00,50.1,47.3,29.76,NW,315,1.0,6.0,90,0.00,,,0.00,0,WeatherCatV1.12B45,2013-03-06 09:25:00,
2013-03-06 01:30:00,50.4,47.6,29.76,NNW,338,2.0,7.0,90,0.00,,,0.00,0,WeatherCatV1.12B45,2013-03-06 09:30:00,
2013-03-06 01:35:00,50.5,48.0,29.76,NW,315,1.0,8.0,91,0.00,,,0.00,0,WeatherCatV1.12B45,2013-03-06 09:35:00,
2013-03-06 01:40:00,50.8,48.3,29.76,NW,315,2.0,8.0,91,0.00,,,0.00,0,WeatherCatV1.12B45,2013-03-06 09:40:00,
2013-03-06 01:45:00,51.3,49.0,29.76,NW,315,4.0,11.0,92,0.00,,,0.00,0,WeatherCatV1.12B45,2013-03-06 09:45:00,
2013-03-06 01:50:00,51.6,49.1,29.77,NW,315,4.0,14.0,91,0.00,,,0.00,0,WeatherCatV1.12B45,2013-03-06 09:50:00,
2013-03-06 01:55:00,51.7,49.2,29.77,NW,315,3.0,13.0,91,0.00,,,0.00,0,WeatherCatV1.12B45,2013-03-06 09:55:00,
2013-03-06 02:00:00,51.7,49.2,29.77,NW,315,4.0,11.0,91,0.00,,,0.00,0,WeatherCatV1.12B45,2013-03-06 10:00:00,
2013-03-06 02:05:00,51.4,48.6,29.77,NW,315,5.0,13.0,90,0.00,,,0.00,0,WeatherCatV1.12B45,2013-03-06 10:05:00,
2013-03-06 02:10:00,51.1,48.0,29.77,NW,315,3.0,11.0,89,0.00,,,0.00,0,WeatherCatV1.12B45,2013-03-06 10:10:00,
2013-03-06 02:15:00,50.8,46.5,29.77,NW,315,5.0,13.0,85,0.00,,,0.00,0,WeatherCatV1.12B45,2013-03-06 10:15:00,
2013-03-06 02:20:00,51.0,46.3,29.78,NW,315,6.0,13.0,84,0.00,,,0.00,0,WeatherCatV1.12B45,2013-03-06 10:20:00,
2013-03-06 02:25:00,51.0,46.0,29.78,NW,315,4.0,18.0,83,0.00,,,0.00,0,WeatherCatV1.12B45,2013-03-06 10:25:00,
2013-03-06 02:30:00,51.1,45.8,29.78,NW,315,5.0,15.0,82,0.00,,,0.00,0,WeatherCatV1.12B45,2013-03-06 10:30:00,
2013-03-06 02:35:00,51.3,46.0,29.78,WNW,292,4.0,19.0,82,0.00,,,0.00,0,WeatherCatV1.12B45,2013-03-06 10:35:00,
2013-03-06 02:40:00,51.6,46.3,29.78,NW,315,5.0,14.0,82,0.00,,,0.00,0,WeatherCatV1.12B45,2013-03-06 10:40:00,
2013-03-06 02:45:00,51.6,46.3,29.78,NW,315,1.0,10.0,82,0.00,,,0.00,0,WeatherCatV1.12B45,2013-03-06 10:45:00,
2013-03-06 02:50:00,51.6,46.6,29.78,WNW,292,4.0,12.0,83,0.00,,,0.00,0,WeatherCatV1.12B45,2013-03-06 10:50:00,
2013-03-06 02:55:00,51.7,46.7,29.78,NW,315,4.0,16.0,83,0.00,,,0.00,0,WeatherCatV1.12B45,2013-03-06 10:55:00,
2013-03-06 03:00:00,51.7,46.7,29.78,NW,315,4.0,12.0,83,0.00,,,0.00,0,WeatherCatV1.12B45,2013-03-06 11:00:00,
2013-03-06 03:05:00,51.7,46.4,29.78,NW,315,4.0,14.0,82,0.00,,,0.00,0,WeatherCatV1.12B45,2013-03-06 11:05:00,
2013-03-06 03:10:00,51.9,46.3,29.78,NW,315,5.0,16.0,81,0.00,,,0.00,0,WeatherCatV1.12B45,2013-03-06 11:10:00,
2013-03-06 03:15:00,52.0,46.3,29.78,NW,315,4.0,12.0,81,0.00,,,0.00,0,WeatherCatV1.12B45,2013-03-06 11:15:00,
2013-03-06 03:20:00,52.0,45.7,29.79,WNW,292,4.0,12.0,79,0.00,,,0.00,0,WeatherCatV1.12B45,2013-03-06 11:20:00,
2013-03-06 03:25:00,52.0,45.4,29.79,NW,315,5.0,14.0,78,0.00,,,0.00,0,WeatherCatV1.12B45,2013-03-06 11:25:00,
2013-03-06 03:30:00,52.0,45.4,29.79,WNW,292,5.0,16.0,78,0.00,,,0.00,0,WeatherCatV1.12B45,2013-03-06 11:30:00,
2013-03-06 03:35:00,52.0,45.4,29.79,NW,315,3.0,13.0,78,0.00,,,0.00,0,WeatherCatV1.12B45,2013-03-06 11:35:00,
2013-03-06 03:40:00,51.9,45.3,29.79,NW,315,4.0,11.0,78,0.00,,,0.00,0,WeatherCatV1.12B45,2013-03-06 11:40:00,
2013-03-06 03:45:00,51.9,45.6,29.79,WNW,292,6.0,17.0,79,0.00,,,0.00,0,WeatherCatV1.12B45,2013-03-06 11:45:00,
2013-03-06 03:50:00,51.7,45.4,29.79,NW,315,4.0,13.0,79,0.00,,,0.00,0,WeatherCatV1.12B45,2013-03-06 11:50:00,
2013-03-06 03:55:00,51.6,45.3,29.79,NW,315,3.0,19.0,79,0.00,,,0.00,0,WeatherCatV1.12B45,2013-03-06 11:55:00,
2013-03-06 04:00:00,51.4,44.8,29.79,NW,315,4.0,17.0,78,0.00,,,0.00,0,WeatherCatV1.12B45,2013-03-06 12:00:00,
2013-03-06 04:05:00,51.3,44.3,29.80,NW,315,4.0,12.0,77,0.00,,,0.00,0,WeatherCatV1.12B45,2013-03-06 12:05:00,
2013-03-06 04:10:00,51.3,44.3,29.80,WNW,292,4.0,13.0,77,0.00,,,0.00,0,WeatherCatV1.12B45,2013-03-06 12:10:00,
2013-03-06 04:15:00,51.3,44.3,29.80,WNW,292,4.0,16.0,77,0.00,,,0.00,0,WeatherCatV1.12B45,2013-03-06 12:15:00,
2013-03-06 04:20:00,51.0,44.0,29.81,WNW,292,3.0,10.0,77,0.00,,,0.00,0,WeatherCatV1.12B45,2013-03-06 12:20:00,
2013-03-06 04:25:00,50.8,43.5,29.81,NW,315,4.0,10.0,76,0.00,,,0.00,0,WeatherCatV1.12B45,2013-03-06 12:25:00,
2013-03-06 04:30:00,50.5,43.2,29.81,WNW,292,4.0,10.0,76,0.00,,,0.00,0,WeatherCatV1.12B45,2013-03-06 12:30:00,
2013-03-06 04:35:00,50.5,43.2,29.82,WNW,292,4.0,12.0,76,0.00,,,0.00,0,WeatherCatV1.12B45,2013-03-06 12:35:00,
2013-03-06 04:40:00,50.2,43.3,29.82,WNW,292,3.0,14.0,77,0.00,,,0.00,0,WeatherCatV1.12B45,2013-03-06 12:40:00,
2013-03-06 04:45:00,50.1,43.2,29.82,WNW,292,2.0,7.0,77,0.00,,,0.00,0,WeatherCatV1.12B45,2013-03-06 12:45:00,
2013-03-06 04:50:00,50.1,43.5,29.82,WNW,292,3.0,10.0,78,0.00,,,0.00,0,WeatherCatV1.12B45,2013-03-06 12:50:00,
2013-03-06 04:55:00,49.9,43.3,29.82,West,270,2.0,7.0,78,0.00,,,0.00,0,WeatherCatV1.12B45,2013-03-06 12:55:00,
2013-03-06 05:00:00,49.8,43.2,29.82,WNW,292,4.0,8.0,78,0.00,,,0.00,0,WeatherCatV1.12B45,2013-03-06 13:00:00,
2013-03-06 05:05:00,49.6,43.0,29.83,WNW,292,2.0,5.0,78,0.00,,,0.00,0,WeatherCatV1.12B45,2013-03-06 13:05:00,
2013-03-06 05:10:00,49.5,43.3,29.83,NW,315,2.0,8.0,79,0.00,,,0.00,0,WeatherCatV1.12B45,2013-03-06 13:10:00,
2013-03-06 05:15:00,49.4,43.5,29.83,WNW,292,2.0,5.0,80,0.00,,,0.00,0,WeatherCatV1.12B45,2013-03-06 13:15:00,
2013-03-06 05:20:00,49.2,43.3,29.83,NW,315,2.0,5.0,80,0.00,,,0.00,0,WeatherCatV1.12B45,2013-03-06 13:20:00,
2013-03-06 05:25:00,49.2,43.3,29.83,NW,315,2.0,7.0,80,0.00,,,0.00,0,WeatherCatV1.12B45,2013-03-06 13:25:00,
2013-03-06 05:30:00,49.2,43.3,29.83,NW,315,2.0,12.0,80,0.00,,,0.00,0,WeatherCatV1.12B45,2013-03-06 13:30:00,
2013-03-06 05:35:00,49.2,43.3,29.83,NW,315,3.0,7.0,80,0.00,,,0.00,0,WeatherCatV1.12B45,2013-03-06 13:35:00,
2013-03-06 05:40:00,49.2,43.3,29.83,NW,315,2.0,7.0,80,0.00,,,0.00,0,WeatherCatV1.12B45,2013-03-06 13:40:00,
2013-03-06 05:45:00,49.2,43.3,29.83,NW,315,1.0,3.0,80,0.00,,,0.00,0,WeatherCatV1.12B45,2013-03-06 13:45:00,
2013-03-06 05:50:00,49.4,43.8,29.84,NW,315,3.0,6.0,81,0.00,,,0.00,0,WeatherCatV1.12B45,2013-03-06 13:50:00,
2013-03-06 05:55:00,49.5,43.9,29.84,NW,315,3.0,8.0,81,0.00,,,0.00,0,WeatherCatV1.12B45,2013-03-06 13:55:00,
2013-03-06 06:00:00,49.5,43.9,29.84,NW,315,1.0,6.0,81,0.00,,,0.00,0,WeatherCatV1.12B45,2013-03-06 14:00:00,
2013-03-06 06:05:00,49.4,43.8,29.84,NW,315,2.0,6.0,81,0.00,,,0.00,0,WeatherCatV1.12B45,2013-03-06 14:05:00,
2013-03-06 06:10:00,49.4,43.8,29.84,NW,315,2.0,5.0,81,0.00,,,0.00,0,WeatherCatV1.12B45,2013-03-06 14:10:00,
2013-03-06 06:15:00,49.4,43.8,29.84,NW,315,1.0,3.0,81,0.00,,,0.00,0,WeatherCatV1.12B45,2013-03-06 14:15:00,
2013-03-06 06:20:00,49.2,43.6,29.85,NW,315,1.0,3.0,81,0.00,,,0.00,0,WeatherCatV1.12B45,2013-03-06 14:20:00,
2013-03-06 06:25:00,48.9,43.3,29.85,NW,315,1.0,2.0,81,0.00,,,0.00,0,WeatherCatV1.12B45,2013-03-06 14:25:00,
2013-03-06 06:30:00,48.9,43.0,29.85,NW,315,3.0,7.0,80,0.00,,,0.00,0,WeatherCatV1.12B45,2013-03-06 14:30:00,
2013-03-06 06:35:00,48.9,42.3,29.86,NW,315,2.0,5.0,78,0.00,,,0.00,0,WeatherCatV1.12B45,2013-03-06 14:35:00,
2013-03-06 06:40:00,48.9,42.3,29.86,NW,315,2.0,5.0,78,0.00,,,0.00,0,WeatherCatV1.12B45,2013-03-06 14:40:00,
2013-03-06 06:45:00,48.9,42.3,29.86,NW,315,1.0,5.0,78,0.00,,,0.00,0,WeatherCatV1.12B45,2013-03-06 14:45:00,
2013-03-06 06:50:00,48.9,42.3,29.87,NW,315,2.0,8.0,78,0.00,,,0.00,0,WeatherCatV1.12B45,2013-03-06 14:50:00,
2013-03-06 06:55:00,48.9,42.0,29.87,NW,315,1.0,7.0,77,0.00,,,0.00,7,WeatherCatV1.12B45,2013-03-06 14:55:00,
2013-03-06 07:00:00,48.9,42.3,29.87,NW,315,1.0,7.0,78,0.00,,,0.00,10,WeatherCatV1.12B45,2013-03-06 15:00:00,
2013-03-06 07:05:00,48.9,42.3,29.88,NW,315,1.0,3.0,78,0.00,,,0.00,14,WeatherCatV1.12B45,2013-03-06 15:05:00,
2013-03-06 07:15:00,49.2,42.6,29.88,NW,325,2.0,4.0,78,0.00,,,0.00,39,WeatherCatV1.12B45,2013-03-06 15:15:00,
2013-03-06 07:21:00,49.5,42.6,29.88,NW,316,1.0,2.0,77,0.00,,,0.16,81,WeatherCatV1.12B45,2013-03-06 15:21:00,
2013-03-06 07:26:00,49.8,42.9,29.88,NNW,342,3.0,3.0,77,0.00,,,0.16,123,WeatherCatV1.12B45,2013-03-06 15:26:00,
2013-03-06 07:31:00,50.1,43.2,29.89,NNW,342,3.0,5.0,77,0.00,,,0.16,102,WeatherCatV1.12B45,2013-03-06 15:31:00,
2013-03-06 07:36:00,50.1,42.1,29.89,NNW,340,4.0,7.0,74,0.00,,,0.16,113,WeatherCatV1.12B45,2013-03-06 15:36:00,
2013-03-06 07:41:00,50.2,42.2,29.89,NNW,329,5.0,5.0,74,0.00,,,0.16,125,WeatherCatV1.12B45,2013-03-06 15:41:00,
2013-03-06 07:46:00,50.4,42.4,29.90,NW,326,2.0,2.0,74,0.00,,,0.16,125,WeatherCatV1.12B45,2013-03-06 15:46:00,
2013-03-06 07:51:00,50.7,42.7,29.90,NW,306,1.0,2.0,74,0.00,,,0.16,125,WeatherCatV1.12B45,2013-03-06 15:51:00,
2013-03-06 07:56:00,50.7,42.7,29.90,North,350,2.0,2.0,74,0.00,,,0.16,125,WeatherCatV1.12B45,2013-03-06 15:56:00,
2013-03-06 08:01:00,50.7,42.7,29.91,NNW,330,5.0,5.0,74,0.00,,,0.16,125,WeatherCatV1.12B45,2013-03-06 16:01:00,
2013-03-06 08:06:00,50.7,42.7,29.91,NW,323,3.0,4.0,74,0.00,,,0.16,125,WeatherCatV1.12B45,2013-03-06 16:06:00,
2013-03-06 08:11:00,50.7,42.7,29.91,NNW,339,1.0,8.0,74,0.00,,,0.16,125,WeatherCatV1.12B45,2013-03-06 16:11:00,
2013-03-06 08:16:00,51.0,43.0,29.92,NNW,347,7.0,7.0,74,0.00,,,0.16,181,WeatherCatV1.12B45,2013-03-06 16:16:00,
2013-03-06 08:21:00,51.1,43.1,29.92,NNW,336,0.0,0.0,74,0.00,,,0.16,290,WeatherCatV1.12B45,2013-03-06 16:21:00,
2013-03-06 08:26:00,51.1,43.1,29.92,NNW,336,0.0,0.0,74,0.00,,,0.16,290,WeatherCatV1.12B45,2013-03-06 16:26:00,
2013-03-06 08:31:00,-999.0,-99.9,29.93,North,-999,-999.0,0.0,-999,0.00,,,0.16,,WeatherCatV1.12B45,2013-03-06 16:31:00,
2013-03-06 08:36:00,-999.0,-99.9,29.93,North,-999,-999.0,0.0,-999,0.00,,,0.16,,WeatherCatV1.12B45,2013-03-06 16:36:00,
2013-03-06 08:41:00,-999.0,-99.9,29.93,North,-999,-999.0,0.0,-999,0.00,,,0.16,,WeatherCatV1.12B45,2013-03-06 16:41:00,
2013-03-06 08:46:00,52.6,-99.9,29.93,NW,312,2.0,5.0,-999,0.00,,,0.16,223,WeatherCatV1.12B45,2013-03-06 16:46:00,
2013-03-06 08:51:00,52.6,43.1,29.93,West,268,3.0,3.0,70,0.00,,,0.16,382,WeatherCatV1.12B45,2013-03-06 16:51:00,
2013-03-06 08:56:00,52.9,43.8,29.93,NW,322,0.0,1.0,71,0.00,,,0.16,408,WeatherCatV1.12B45,2013-03-06 16:56:00,
2013-03-06 09:01:00,53.3,44.1,29.94,NW,315,1.0,1.0,71,0.00,,,0.16,408,WeatherCatV1.12B45,2013-03-06 17:01:00,
2013-03-06 09:06:00,53.6,44.4,29.94,NNW,329,0.0,0.0,71,0.00,,,0.16,408,WeatherCatV1.12B45,2013-03-06 17:06:00,
2013-03-06 09:11:00,54.2,44.6,29.94,NNW,335,0.0,2.0,70,0.00,,,0.16,408,WeatherCatV1.12B45,2013-03-06 17:11:00,
2013-03-06 09:16:00,54.2,44.6,29.94,North,350,1.0,1.0,70,0.00,,,0.16,472,WeatherCatV1.12B45,2013-03-06 17:16:00,
2013-03-06 09:21:00,54.7,44.3,29.94,NNW,335,1.0,1.0,68,0.00,,,0.16,538,WeatherCatV1.12B45,2013-03-06 17:21:00,
2013-03-06 09:26:00,55.1,43.5,29.94,WNW,294,0.0,1.0,65,0.00,,,0.16,538,WeatherCatV1.12B45,2013-03-06 17:26:00,
2013-03-06 09:31:00,55.3,43.7,29.95,NNW,346,0.0,2.0,65,0.00,,,0.16,538,WeatherCatV1.12B45,2013-03-06 17:31:00,
2013-03-06 09:36:00,55.4,43.8,29.95,North,353,1.0,1.0,65,0.00,,,0.16,538,WeatherCatV1.12B45,2013-03-06 17:36:00,
2013-03-06 09:41:00,55.7,44.1,29.95,NW,323,2.0,4.0,65,0.00,,,0.16,538,WeatherCatV1.12B45,2013-03-06 17:41:00,
2013-03-06 09:46:00,55.7,43.7,29.96,NNW,346,3.0,3.0,64,0.00,,,0.16,538,WeatherCatV1.12B45,2013-03-06 17:46:00,
2013-03-06 09:51:00,55.6,43.6,29.96,North,356,2.0,8.0,64,0.00,,,0.16,538,WeatherCatV1.12B45,2013-03-06 17:51:00,
2013-03-06 09:56:00,55.6,44.4,29.96,NNW,343,1.0,2.0,66,0.00,,,0.16,538,WeatherCatV1.12B45,2013-03-06 17:56:00,
2013-03-06 10:01:00,55.4,43.8,29.96,NNW,347,2.0,8.0,65,0.00,,,0.16,470,WeatherCatV1.12B45,2013-03-06 18:01:00,
2013-03-06 10:06:00,55.1,41.9,29.96,NNW,330,0.0,7.0,61,0.00,,,0.16,470,WeatherCatV1.12B45,2013-03-06 18:06:00,
2013-03-06 10:11:00,55.0,41.8,29.96,North,353,2.0,3.0,61,0.00,,,0.16,285,WeatherCatV1.12B45,2013-03-06 18:11:00,
2013-03-06 10:16:00,54.8,42.0,29.97,North,354,2.0,7.0,62,0.00,,,0.16,315,WeatherCatV1.12B45,2013-03-06 18:16:00,
2013-03-06 10:21:00,54.8,41.6,29.97,North,349,5.0,11.0,61,0.00,,,0.16,334,WeatherCatV1.12B45,2013-03-06 18:21:00,
2013-03-06 10:26:00,54.7,41.1,29.97,NNW,344,2.0,4.0,60,0.00,,,0.16,505,WeatherCatV1.12B45,2013-03-06 18:26:00,
2013-03-06 10:31:00,54.7,41.5,29.97,North,349,1.0,2.0,61,0.00,,,0.16,435,WeatherCatV1.12B45,2013-03-06 18:31:00,
2013-03-06 10:36:00,54.8,41.2,29.97,NNW,347,5.0,5.0,60,0.00,,,0.16,408,WeatherCatV1.12B45,2013-03-06 18:36:00,
2013-03-06 10:41:00,54.8,41.2,29.97,NNW,337,0.0,2.0,60,0.00,,,0.16,408,WeatherCatV1.12B45,2013-03-06 18:41:00,
2013-03-06 10:46:00,55.1,41.5,29.98,NNW,346,4.0,5.0,60,0.00,,,0.16,408,WeatherCatV1.12B45,2013-03-06 18:46:00,
2013-03-06 10:51:00,55.1,42.3,29.98,NW,325,0.0,0.0,62,0.00,,,0.16,521,WeatherCatV1.12B45,2013-03-06 18:51:00,
2013-03-06 10:56:00,55.3,43.3,29.98,NNW,330,1.0,3.0,64,0.00,,,0.16,489,WeatherCatV1.12B45,2013-03-06 18:56:00,
2013-03-06 11:01:00,55.4,43.4,29.98,NNW,335,1.0,2.0,64,0.00,,,0.16,547,WeatherCatV1.12B45,2013-03-06 19:01:00,
2013-03-06 11:06:00,55.4,43.0,29.98,North,356,2.0,2.0,63,0.00,,,0.16,640,WeatherCatV1.12B45,2013-03-06 19:06:00,
2013-03-06 11:11:00,56.0,43.6,29.98,North,349,3.0,3.0,63,0.00,,,0.16,672,WeatherCatV1.12B45,2013-03-06 19:11:00,
2013-03-06 11:16:00,56.3,42.6,29.98,NNW,340,2.0,3.0,60,0.00,,,0.16,672,WeatherCatV1.12B45,2013-03-06 19:16:00,
2013-03-06 11:21:00,56.3,41.7,29.98,North,350,3.0,3.0,58,0.00,,,0.16,595,WeatherCatV1.12B45,2013-03-06 19:21:00,
2013-03-06 11:26:00,56.0,41.4,29.98,North,349,0.0,3.0,58,0.00,,,0.16,568,WeatherCatV1.12B45,2013-03-06 19:26:00,
2013-03-06 11:31:00,55.7,42.0,29.98,North,353,2.0,5.0,60,0.00,,,0.16,568,WeatherCatV1.12B45,2013-03-06 19:31:00,
2013-03-06 11:36:00,55.6,41.9,29.98,North,353,1.0,8.0,60,0.00,,,0.16,475,WeatherCatV1.12B45,2013-03-06 19:36:00,
2013-03-06 11:41:00,55.3,41.2,29.98,NNW,342,3.0,5.0,59,0.00,,,0.16,436,WeatherCatV1.12B45,2013-03-06 19:41:00,
2013-03-06 11:46:00,55.3,41.7,29.98,North,356,1.0,13.0,60,0.00,,,0.16,486,WeatherCatV1.12B45,2013-03-06 19:46:00,
2013-03-06 11:51:00,55.4,41.7,29.98,NNW,329,4.0,8.0,60,0.00,,,0.16,510,WeatherCatV1.12B45,2013-03-06 19:51:00,
2013-03-06 11:56:00,55.4,41.7,29.98,NNW,344,3.0,5.0,60,0.00,,,0.16,545,WeatherCatV1.12B45,2013-03-06 19:56:00,
2013-03-06 12:01:00,55.6,41.9,29.98,NW,326,3.0,3.0,60,0.00,,,0.16,545,WeatherCatV1.12B45,2013-03-06 20:01:00,
2013-03-06 12:06:00,55.4,41.7,29.98,NNW,329,1.0,1.0,60,0.00,,,0.16,547,WeatherCatV1.12B45,2013-03-06 20:06:00,
2013-03-06 12:11:00,55.7,42.0,29.98,NNW,329,6.0,6.0,60,0.00,,,0.16,547,WeatherCatV1.12B45,2013-03-06 20:11:00,
2013-03-06 12:16:00,55.7,42.0,29.98,NW,326,2.0,2.0,60,0.00,,,0.16,549,WeatherCatV1.12B45,2013-03-06 20:16:00,
2013-03-06 12:21:00,55.6,41.9,29.98,NNW,330,8.0,8.0,60,0.00,,,0.16,549,WeatherCatV1.12B45,2013-03-06 20:21:00,
2013-03-06 12:26:00,55.1,41.9,29.98,NNW,332,7.0,8.0,61,0.00,,,0.16,549,WeatherCatV1.12B45,2013-03-06 20:26:00,
2013-03-06 12:31:00,55.1,42.3,29.98,NNW,333,1.0,10.0,62,0.00,,,0.16,549,WeatherCatV1.12B45,2013-03-06 20:31:00,
2013-03-06 12:36:00,55.3,42.1,29.98,NNW,336,1.0,5.0,61,0.00,,,0.16,549,WeatherCatV1.12B45,2013-03-06 20:36:00,
2013-03-06 12:41:00,55.4,42.2,29.98,NW,322,1.0,3.0,61,0.00,,,0.16,371,WeatherCatV1.12B45,2013-03-06 20:41:00,
2013-03-06 12:46:00,55.4,42.2,29.98,NW,322,1.0,6.0,61,0.00,,,0.16,371,WeatherCatV1.12B45,2013-03-06 20:46:00,
2013-03-06 12:51:00,55.4,41.3,29.98,NW,315,1.0,8.0,59,0.00,,,0.16,371,WeatherCatV1.12B45,2013-03-06 20:51:00,
2013-03-06 12:56:00,55.4,41.7,29.98,NW,313,6.0,6.0,60,0.00,,,0.16,509,WeatherCatV1.12B45,2013-03-06 20:56:00,
2013-03-06 13:01:00,55.6,42.8,29.97,NNW,336,2.0,5.0,62,0.00,,,0.16,509,WeatherCatV1.12B45,2013-03-06 21:01:00,
2013-03-06 13:06:00,55.9,42.6,29.97,NW,316,4.0,5.0,61,0.00,,,0.16,509,WeatherCatV1.12B45,2013-03-06 21:06:00,
2013-03-06 13:11:00,55.6,42.8,29.97,NW,308,2.0,2.0,62,0.00,,,0.16,493,WeatherCatV1.12B45,2013-03-06 21:11:00,
2013-03-06 13:16:00,55.6,42.8,29.97,NW,316,1.0,2.0,62,0.00,,,0.16,466,WeatherCatV1.12B45,2013-03-06 21:16:00,
2013-03-06 13:21:00,55.7,43.3,29.97,NW,316,2.0,3.0,63,0.00,,,0.16,466,WeatherCatV1.12B45,2013-03-06 21:21:00,
2013-03-06 13:26:00,55.4,43.0,29.97,NW,313,6.0,6.0,63,0.00,,,0.16,489,WeatherCatV1.12B45,2013-03-06 21:26:00,
2013-03-06 13:31:00,55.1,43.5,29.97,NNW,335,1.0,7.0,65,0.00,,,0.16,489,WeatherCatV1.12B45,2013-03-06 21:31:00,
2013-03-06 13:36:00,55.0,43.0,29.97,NNW,329,3.0,10.0,64,0.00,,,0.16,336,WeatherCatV1.12B45,2013-03-06 21:36:00,
2013-03-06 13:41:00,54.8,43.3,29.97,NNW,340,10.0,11.0,65,0.00,,,0.16,306,WeatherCatV1.12B45,2013-03-06 21:41:00,
2013-03-06 13:46:00,55.0,43.5,29.97,NW,320,3.0,6.0,65,0.00,,,0.16,556,WeatherCatV1.12B45,2013-03-06 21:46:00,
2013-03-06 13:51:00,55.0,43.9,29.97,NW,313,5.0,7.0,66,0.00,,,0.16,556,WeatherCatV1.12B45,2013-03-06 21:51:00,
2013-03-06 13:56:00,55.1,43.1,29.97,WNW,287,0.0,2.0,64,0.00,,,0.16,556,WeatherCatV1.12B45,2013-03-06 21:56:00,
2013-03-06 14:01:00,55.9,44.3,29.96,NNW,342,2.0,2.0,65,0.00,,,0.16,556,WeatherCatV1.12B45,2013-03-06 22:01:00,
2013-03-06 14:06:00,56.6,45.0,29.96,NNW,342,6.0,6.0,65,0.00,,,0.16,568,WeatherCatV1.12B45,2013-03-06 22:06:00,
2013-03-06 14:11:00,57.0,45.3,29.96,NNW,346,8.0,8.0,65,0.00,,,0.16,582,WeatherCatV1.12B45,2013-03-06 22:11:00,
2013-03-06 14:16:00,56.7,45.1,29.96,NNW,344,0.0,1.0,65,0.00,,,0.16,581,WeatherCatV1.12B45,2013-03-06 22:16:00,
2013-03-06 14:21:00,56.6,42.9,29.96,NNW,336,6.0,6.0,60,0.00,,,0.16,581,WeatherCatV1.12B45,2013-03-06 22:21:00,
2013-03-06 14:26:00,56.5,42.8,29.96,NNW,336,0.0,1.0,60,0.00,,,0.16,581,WeatherCatV1.12B45,2013-03-06 22:26:00,
2013-03-06 14:31:00,56.3,42.6,29.96,NNW,347,2.0,2.0,60,0.00,,,0.16,581,WeatherCatV1.12B45,2013-03-06 22:31:00,
2013-03-06 14:36:00,56.2,41.2,29.96,NNW,332,3.0,3.0,57,0.00,,,0.16,581,WeatherCatV1.12B45,2013-03-06 22:36:00,
2013-03-06 14:41:00,56.3,40.8,29.96,NNW,339,2.0,6.0,56,0.00,,,0.16,204,WeatherCatV1.12B45,2013-03-06 22:41:00,
2013-03-06 14:46:00,56.3,40.8,29.96,NW,326,2.0,5.0,56,0.00,,,0.16,313,WeatherCatV1.12B45,2013-03-06 22:46:00,
2013-03-06 14:51:00,56.3,40.8,29.96,NNW,347,1.0,10.0,56,0.00,,,0.16,313,WeatherCatV1.12B45,2013-03-06 22:51:00,
2013-03-06 14:56:00,56.5,41.5,29.96,NNW,333,1.0,7.0,57,0.00,,,0.16,524,WeatherCatV1.12B45,2013-03-06 22:56:00,
2013-03-06 15:01:00,56.3,41.3,29.97,NNW,333,3.0,7.0,57,0.00,,,0.16,121,WeatherCatV1.12B45,2013-03-06 23:01:00,
2013-03-06 15:06:00,56.0,41.4,29.97,NW,323,5.0,10.0,58,0.00,,,0.16,194,WeatherCatV1.12B45,2013-03-06 23:06:00,
2013-03-06 15:11:00,55.6,41.5,29.97,NNW,329,5.0,10.0,59,0.00,,,0.16,194,WeatherCatV1.12B45,2013-03-06 23:11:00,
2013-03-06 15:16:00,55.3,41.7,29.97,NNW,332,5.0,6.0,60,0.00,,,0.16,148,WeatherCatV1.12B45,2013-03-06 23:16:00,
2013-03-06 15:21:00,55.1,41.9,29.97,NNW,340,1.0,7.0,61,0.00,,,0.16,148,WeatherCatV1.12B45,2013-03-06 23:21:00,
2013-03-06 15:26:00,55.1,41.9,29.97,NNW,336,8.0,8.0,61,0.00,,,0.16,148,WeatherCatV1.12B45,2013-03-06 23:26:00,
2013-03-06 15:31:00,54.8,41.6,29.97,NNW,346,2.0,2.0,61,0.00,,,0.16,190,WeatherCatV1.12B45,2013-03-06 23:31:00,
2013-03-06 15:36:00,54.5,42.2,29.97,NNW,339,6.0,8.0,63,0.00,,,0.16,201,WeatherCatV1.12B45,2013-03-06 23:36:00,
2013-03-06 15:41:00,54.2,42.3,29.97,NNW,343,5.0,6.0,64,0.00,,,0.16,199,WeatherCatV1.12B45,2013-03-06 23:41:00,
2013-03-06 15:46:00,54.1,42.2,29.97,NNW,342,3.0,5.0,64,0.00,,,0.16,211,WeatherCatV1.12B45,2013-03-06 23:46:00,
2013-03-06 15:51:00,54.1,42.2,29.97,NNW,347,1.0,5.0,64,0.00,,,0.16,206,WeatherCatV1.12B45,2013-03-06 23:51:00,
2013-03-06 15:56:00,53.9,42.0,29.97,NNW,335,0.0,2.0,64,0.00,,,0.16,206,WeatherCatV1.12B45,2013-03-06 23:56:00,
2013-03-06 16:01:00,54.1,43.0,29.97,NNW,342,3.0,6.0,66,0.00,,,0.16,206,WeatherCatV1.12B45,2013-03-07 00:01:00,
2013-03-06 16:06:00,54.1,42.6,29.97,NNW,333,0.0,3.0,65,0.00,,,0.16,171,WeatherCatV1.12B45,2013-03-07 00:06:00,
2013-03-06 16:11:00,54.2,42.3,29.97,NNW,329,0.0,1.0,64,0.00,,,0.16,183,WeatherCatV1.12B45,2013-03-07 00:11:00,
2013-03-06 16:16:00,54.4,42.1,29.96,NW,326,2.0,7.0,63,0.00,,,0.16,167,WeatherCatV1.12B45,2013-03-07 00:16:00,
2013-03-06 16:21:00,54.2,41.9,29.96,NNW,335,0.0,2.0,63,0.00,,,0.16,167,WeatherCatV1.12B45,2013-03-07 00:21:00,
2013-03-06 16:26:00,54.4,42.1,29.96,NNW,333,0.0,3.0,63,0.00,,,0.16,150,WeatherCatV1.12B45,2013-03-07 00:26:00,
2013-03-06 16:31:00,54.4,41.7,29.96,NNW,337,1.0,1.0,62,0.00,,,0.16,157,WeatherCatV1.12B45,2013-03-07 00:31:00,
2013-03-06 16:36:00,54.4,41.2,29.96,North,350,3.0,3.0,61,0.00,,,0.16,127,WeatherCatV1.12B45,2013-03-07 00:36:00,
2013-03-06 16:41:00,54.4,40.8,29.96,NNW,337,0.0,5.0,60,0.00,,,0.16,128,WeatherCatV1.12B45,2013-03-07 00:41:00,
2013-03-06 16:46:00,54.2,41.0,29.96,NNW,344,1.0,2.0,61,0.00,,,0.16,113,WeatherCatV1.12B45,2013-03-07 00:46:00,
2013-03-06 16:51:00,54.1,41.0,29.96,NNW,347,1.0,5.0,61,0.00,,,0.16,102,WeatherCatV1.12B45,2013-03-07 00:51:00,
2013-03-06 16:56:00,53.9,41.6,29.96,North,354,1.0,3.0,63,0.00,,,0.16,107,WeatherCatV1.12B45,2013-03-07 00:56:00,
2013-03-06 17:01:00,53.9,41.2,29.96,North,354,1.0,1.0,62,0.00,,,0.16,107,WeatherCatV1.12B45,2013-03-07 01:01:00,
2013-03-06 17:06:00,53.8,41.9,29.96,North,357,0.0,0.0,64,0.00,,,0.16,104,WeatherCatV1.12B45,2013-03-07 01:06:00,
2013-03-06 17:11:00,53.5,42.4,29.96,North,357,0.0,0.0,66,0.00,,,0.16,104,WeatherCatV1.12B45,2013-03-07 01:11:00,
2013-03-06 17:16:00,53.5,42.4,29.96,North,353,0.0,1.0,66,0.00,,,0.16,100,WeatherCatV1.12B45,2013-03-07 01:16:00,
2013-03-06 17:21:00,53.2,42.5,29.96,North,357,0.0,6.0,67,0.00,,,0.16,77,WeatherCatV1.12B45,2013-03-07 01:21:00,
2013-03-06 17:26:00,52.9,42.2,29.96,North,354,5.0,5.0,67,0.00,,,0.16,58,WeatherCatV1.12B45,2013-03-07 01:26:00,
2013-03-06 17:31:00,52.6,42.0,29.96,North,353,0.0,3.0,67,0.00,,,0.16,58,WeatherCatV1.12B45,2013-03-07 01:31:00,
2013-03-06 17:36:00,52.6,42.0,29.96,North,356,0.0,0.0,67,0.00,,,0.16,58,WeatherCatV1.12B45,2013-03-07 01:36:00,
2013-03-06 17:41:00,52.5,42.6,29.96,North,353,0.0,1.0,69,0.00,,,0.16,40,WeatherCatV1.12B45,2013-03-07 01:41:00,
2013-03-06 17:46:00,52.3,42.4,29.96,North,353,0.0,0.0,69,0.00,,,0.16,30,WeatherCatV1.12B45,2013-03-07 01:46:00,
2013-03-06 17:51:00,52.0,42.5,29.96,North,354,0.0,4.0,70,0.00,,,0.16,14,WeatherCatV1.12B45,2013-03-07 01:51:00,
2013-03-06 17:56:00,51.9,42.8,29.96,North,353,0.0,1.0,71,0.00,,,0.16,11,WeatherCatV1.12B45,2013-03-07 01:56:00,
2013-03-06 18:01:00,51.7,42.6,29.96,North,349,0.0,3.0,71,0.00,,,0.16,7,WeatherCatV1.12B45,2013-03-07 02:01:00,
2013-03-06 18:06:00,51.6,42.5,29.96,North,350,1.0,1.0,71,0.00,,,0.16,5,WeatherCatV1.12B45,2013-03-07 02:06:00,
2013-03-06 18:11:00,51.4,42.7,29.96,NNW,344,0.0,0.0,72,0.00,,,0.16,0,WeatherCatV1.12B45,2013-03-07 02:11:00,
2013-03-06 18:16:00,51.3,42.6,29.95,NNW,340,0.0,0.0,72,0.00,,,0.16,0,WeatherCatV1.12B45,2013-03-07 02:16:00,
2013-03-06 18:21:00,51.1,42.4,29.95,NNW,337,0.0,0.0,72,0.00,,,0.16,0,WeatherCatV1.12B45,2013-03-07 02:21:00,
2013-03-06 18:26:00,51.1,43.1,29.95,NW,326,0.0,0.0,74,0.00,,,0.16,0,WeatherCatV1.12B45,2013-03-07 02:26:00,
2013-03-06 18:31:00,51.1,43.1,29.95,NW,326,0.0,0.0,74,0.00,,,0.16,0,WeatherCatV1.12B45,2013-03-07 02:31:00,
2013-03-06 18:36:00,51.1,43.1,29.95,NW,326,0.0,0.0,74,0.00,,,0.16,0,WeatherCatV1.12B45,2013-03-07 02:36:00,
2013-03-06 18:41:00,-999.0,-99.9,29.95,North,-999,-999.0,0.0,-999,0.00,,,0.16,,WeatherCatV1.12B45,2013-03-07 02:41:00,
2013-03-06 18:46:00,-999.0,-99.9,29.95,North,-999,-999.0,0.0,-999,0.00,,,0.16,,WeatherCatV1.12B45,2013-03-07 02:46:00,
2013-03-06 18:51:00,-999.0,-99.9,29.95,North,-999,-999.0,0.0,-999,0.00,,,0.16,,WeatherCatV1.12B45,2013-03-07 02:51:00,
2013-03-06 18:56:00,49.9,43.0,29.95,NW,323,0.0,0.0,77,0.00,,,0.16,,WeatherCatV1.12B45,2013-03-07 02:56:00,
2013-03-06 19:01:00,49.6,43.0,29.95,NW,322,0.0,0.0,78,0.00,,,0.16,0,WeatherCatV1.12B45,2013-03-07 03:01:00,
2013-03-06 19:06:00,49.4,42.8,29.95,NNW,333,0.0,0.0,78,0.00,,,0.16,0,WeatherCatV1.12B45,2013-03-07 03:06:00,
2013-03-06 19:11:00,49.2,42.6,29.95,NNW,343,0.0,0.0,78,0.00,,,0.16,0,WeatherCatV1.12B45,2013-03-07 03:11:00,
2013-03-06 19:16:00,48.8,42.6,29.95,NNW,344,0.0,0.0,79,0.00,,,0.16,0,WeatherCatV1.12B45,2013-03-07 03:16:00,
2013-03-06 19:21:00,48.5,42.6,29.95,NNW,344,0.0,0.0,80,0.00,,,0.16,0,WeatherCatV1.12B45,2013-03-07 03:21:00,
2013-03-06 19:26:00,48.2,42.3,29.95,NNW,347,0.0,0.0,80,0.00,,,0.16,0,WeatherCatV1.12B45,2013-03-07 03:26:00,
2013-03-06 19:31:00,47.9,42.4,29.95,NNW,342,0.0,0.0,81,0.00,,,0.16,0,WeatherCatV1.12B45,2013-03-07 03:31:00,
2013-03-06 19:36:00,47.7,42.2,29.95,NNW,344,0.0,0.0,81,0.00,,,0.16,0,WeatherCatV1.12B45,2013-03-07 03:36:00,
2013-03-06 19:41:00,47.6,42.7,29.95,NNW,340,0.0,0.0,83,0.00,,,0.16,0,WeatherCatV1.12B45,2013-03-07 03:41:00,
2013-03-06 19:46:00,47.4,42.5,29.95,NNW,346,0.0,0.0,83,0.00,,,0.16,0,WeatherCatV1.12B45,2013-03-07 03:46:00,
2013-03-06 19:51:00,47.3,42.4,29.95,NNW,344,0.0,0.0,83,0.00,,,0.16,0,WeatherCatV1.12B45,2013-03-07 03:51:00,
2013-03-06 19:56:00,47.1,42.2,29.95,NNW,346,0.0,0.0,83,0.00,,,0.16,0,WeatherCatV1.12B45,2013-03-07 03:56:00,
2013-03-06 20:01:00,47.0,42.4,29.95,NNW,346,0.0,0.0,84,0.00,,,0.16,0,WeatherCatV1.12B45,2013-03-07 04:01:00,
2013-03-06 20:06:00,46.7,42.1,29.95,NNW,343,0.0,0.0,84,0.00,,,0.16,0,WeatherCatV1.12B45,2013-03-07 04:06:00,
2013-03-06 20:11:00,46.5,41.9,29.95,NNW,344,0.0,0.0,84,0.00,,,0.16,0,WeatherCatV1.12B45,2013-03-07 04:11:00,
2013-03-06 20:16:00,46.2,41.6,29.95,North,350,0.0,0.0,84,0.00,,,0.16,0,WeatherCatV1.12B45,2013-03-07 04:16:00,
2013-03-06 20:21:00,46.2,41.9,29.95,South,184,0.0,0.0,85,0.00,,,0.16,0,WeatherCatV1.12B45,2013-03-07 04:21:00,
2013-03-06 20:26:00,46.0,41.7,29.95,NNW,346,0.0,0.0,85,0.00,,,0.16,0,WeatherCatV1.12B45,2013-03-07 04:26:00,
2013-03-06 20:31:00,45.7,41.5,29.94,NNW,346,0.0,0.0,85,0.00,,,0.16,0,WeatherCatV1.12B45,2013-03-07 04:31:00,
2013-03-06 20:36:00,45.7,41.5,29.94,NNW,346,0.0,0.0,85,0.00,,,0.16,0,WeatherCatV1.12B45,2013-03-07 04:36:00,
2013-03-06 20:41:00,45.5,41.6,29.94,NNW,346,0.0,0.0,86,0.00,,,0.16,0,WeatherCatV1.12B45,2013-03-07 04:41:00,
2013-03-06 20:46:00,45.2,41.3,29.95,NNW,346,0.0,0.0,86,0.00,,,0.16,0,WeatherCatV1.12B45,2013-03-07 04:46:00,
2013-03-06 20:51:00,45.1,41.2,29.95,NNW,343,0.0,0.0,86,0.00,,,0.16,0,WeatherCatV1.12B45,2013-03-07 04:51:00,
2013-03-06 20:56:00,44.8,41.2,29.95,NNW,340,0.0,0.0,87,0.00,,,0.16,0,WeatherCatV1.12B45,2013-03-07 04:56:00,
2013-03-06 21:01:00,44.6,41.0,29.94,NNW,329,0.0,0.0,87,0.00,,,0.16,0,WeatherCatV1.12B45,2013-03-07 05:01:00,
2013-03-06 21:06:00,44.5,40.9,29.94,NNW,336,0.0,0.0,87,0.00,,,0.16,0,WeatherCatV1.12B45,2013-03-07 05:06:00,
2013-03-06 21:11:00,44.2,40.6,29.94,NNW,337,0.0,0.0,87,0.00,,,0.16,0,WeatherCatV1.12B45,2013-03-07 05:11:00,
2013-03-06 21:16:00,44.1,40.5,29.94,NNW,335,0.0,0.0,87,0.00,,,0.16,0,WeatherCatV1.12B45,2013-03-07 05:16:00,
2013-03-06 21:21:00,43.8,40.2,29.94,NNW,335,0.0,0.0,87,0.00,,,0.16,0,WeatherCatV1.12B45,2013-03-07 05:21:00,
2013-03-06 21:26:00,43.6,40.0,29.94,NNW,337,0.0,0.0,87,0.00,,,0.16,0,WeatherCatV1.12B45,2013-03-07 05:26:00,
2013-03-06 21:31:00,43.5,40.2,29.94,NNW,337,0.0,0.0,88,0.00,,,0.16,0,WeatherCatV1.12B45,2013-03-07 05:31:00,
2013-03-06 21:36:00,43.3,40.0,29.94,NNW,329,0.0,0.0,88,0.00,,,0.16,0,WeatherCatV1.12B45,2013-03-07 05:36:00,
2013-03-06 21:41:00,43.2,39.9,29.94,NNW,330,0.0,0.0,88,0.00,,,0.16,0,WeatherCatV1.12B45,2013-03-07 05:41:00,
2013-03-06 21:46:00,43.1,39.8,29.94,NNW,335,0.0,0.0,88,0.00,,,0.16,0,WeatherCatV1.12B45,2013-03-07 05:46:00,
2013-03-06 21:51:00,42.8,39.5,29.94,NNW,333,0.0,0.0,88,0.00,,,0.16,0,WeatherCatV1.12B45,2013-03-07 05:51:00,
2013-03-06 21:56:00,42.6,39.3,29.94,NNW,332,0.0,0.0,88,0.00,,,0.16,0,WeatherCatV1.12B45,2013-03-07 05:56:00,
2013-03-06 22:01:00,42.6,39.6,29.94,NNW,333,0.0,0.0,89,0.00,,,0.16,0,WeatherCatV1.12B45,2013-03-07 06:01:00,
2013-03-06 22:06:00,42.3,39.3,29.94,NNW,333,0.0,0.0,89,0.00,,,0.16,0,WeatherCatV1.12B45,2013-03-07 06:06:00,
2013-03-06 22:11:00,42.2,39.2,29.94,NW,322,0.0,0.0,89,0.00,,,0.16,0,WeatherCatV1.12B45,2013-03-07 06:11:00,
2013-03-06 22:16:00,42.1,39.1,29.94,NW,326,0.0,0.0,89,0.00,,,0.16,0,WeatherCatV1.12B45,2013-03-07 06:16:00,
2013-03-06 22:21:00,41.9,38.9,29.94,NNW,330,0.0,0.0,89,0.00,,,0.16,0,WeatherCatV1.12B45,2013-03-07 06:21:00,
2013-03-06 22:26:00,41.8,38.8,29.94,NNW,332,0.0,0.0,89,0.00,,,0.16,0,WeatherCatV1.12B45,2013-03-07 06:26:00,
2013-03-06 22:31:00,41.6,38.6,29.93,NNW,332,0.0,0.0,89,0.00,,,0.16,0,WeatherCatV1.12B45,2013-03-07 06:31:00,
2013-03-06 22:36:00,41.5,38.5,29.93,NNW,333,0.0,0.0,89,0.00,,,0.16,0,WeatherCatV1.12B45,2013-03-07 06:36:00,
2013-03-06 22:41:00,41.3,38.3,29.93,NNW,332,0.0,0.0,89,0.00,,,0.16,0,WeatherCatV1.12B45,2013-03-07 06:41:00,
2013-03-06 22:46:00,41.2,38.2,29.93,NW,326,0.0,0.0,89,0.00,,,0.16,0,WeatherCatV1.12B45,2013-03-07 06:46:00,
2013-03-06 22:51:00,40.9,37.9,29.93,NNW,329,0.0,0.0,89,0.00,,,0.16,0,WeatherCatV1.12B45,2013-03-07 06:51:00,
2013-03-06 22:56:00,40.8,37.8,29.93,NW,326,0.0,0.0,89,0.00,,,0.16,0,WeatherCatV1.12B45,2013-03-07 06:56:00,
2013-03-06 23:01:00,40.6,37.6,29.93,NW,325,0.0,0.0,89,0.00,,,0.16,0,WeatherCatV1.12B45,2013-03-07 07:01:00,
2013-03-06 23:06:00,40.5,37.8,29.93,NNW,329,0.0,0.0,90,0.00,,,0.16,0,WeatherCatV1.12B45,2013-03-07 07:06:00,
2013-03-06 23:11:00,40.3,37.6,29.93,NW,326,0.0,0.0,90,0.00,,,0.16,0,WeatherCatV1.12B45,2013-03-07 07:11:00,
2013-03-06 23:16:00,40.2,37.5,29.92,NNW,330,0.0,0.0,90,0.00,,,0.16,0,WeatherCatV1.12B45,2013-03-07 07:16:00,
2013-03-06 23:21:00,40.1,37.4,29.92,NNW,329,0.0,0.0,90,0.00,,,0.16,0,WeatherCatV1.12B45,2013-03-07 07:21:00,
2013-03-06 23:26:00,40.1,37.4,29.92,NNW,330,0.0,0.0,90,0.00,,,0.16,0,WeatherCatV1.12B45,2013-03-07 07:26:00,
2013-03-06 23:31:00,39.8,37.1,29.92,NW,326,0.0,0.0,90,0.00,,,0.16,0,WeatherCatV1.12B45,2013-03-07 07:31:00,
2013-03-06 23:36:00,39.8,37.1,29.92,NNW,329,0.0,0.0,90,0.00,,,0.16,0,WeatherCatV1.12B45,2013-03-07 07:36:00,
2013-03-06 23:41:00,39.5,36.8,29.92,NW,326,0.0,0.0,90,0.00,,,0.16,0,WeatherCatV1.12B45,2013-03-07 07:41:00,
2013-03-06 23:46:00,39.3,36.6,29.92,NW,323,0.0,0.0,90,0.00,,,0.16,0,WeatherCatV1.12B45,2013-03-07 07:46:00,
2013-03-06 23:51:00,39.2,36.5,29.92,NW,323,0.0,0.0,90,0.00,,,0.16,0,WeatherCatV1.12B45,2013-03-07 07:51:00,
2013-03-06 23:56:00,39.1,36.4,29.92,NW,326,0.0,0.0,90,0.00,,,0.16,0,WeatherCatV1.12B45,2013-03-07 07:56:00,